Time,TemperatureF,DewpointF,PressureIn,WindDirection,WindDirectionDegrees,WindSpeedMPH,WindSpeedGustMPH,Humidity,HourlyPrecipIn,Conditions,Clouds,dailyrainin,SoftwareType,DateUTC
2013-04-01 00:05:00,39.8,37.9,29.63,SE,135,5.0,14.0,93,0.08,,,-99.99,WeatherLink 5.5,2013-04-01 04:05:00,
2013-04-01 01:05:00,40.6,39.3,29.57,West,270,0.0,3.0,95,0.00,,,-99.99,WeatherLink 5.5,2013-04-01 05:05:00,
2013-04-01 02:05:00,40.6,39.3,29.57,West,270,0.0,3.0,95,0.00,,,-99.99,WeatherLink 5.5,2013-04-01 06:05:00,
2013-04-01 03:05:00,40.2,38.6,29.56,NW,315,3.0,8.0,94,0.00,,,-99.99,WeatherLink 5.5,2013-04-01 07:05:00,
2013-04-01 04:05:00,40.1,38.8,29.56,NW,315,5.0,11.0,95,0.00,,,-99.99,WeatherLink 5.5,2013-04-01 08:05:00,
2013-04-01 05:05:00,39.6,38.3,29.58,West,270,6.0,13.0,95,0.00,,,-99.99,WeatherLink 5.5,2013-04-01 09:05:00,
2013-04-01 06:05:00,39.8,38.5,29.59,West,270,10.0,19.0,95,0.00,,,-99.99,WeatherLink 5.5,2013-04-01 10:05:00,
2013-04-01 07:05:00,40.2,39.2,29.61,West,270,10.0,18.0,96,0.00,,,-99.99,WeatherLink 5.5,2013-04-01 11:05:00,
2013-04-01 08:05:00,40.3,39.0,29.59,West,270,9.0,18.0,95,0.00,,,-99.99,WeatherLink 5.5,2013-04-01 12:05:00,
2013-04-01 09:05:00,41.6,39.7,29.60,West,270,9.0,16.0,93,0.00,,,-99.99,WeatherLink 5.5,2013-04-01 13:05:00,
2013-04-01 10:05:00,42.3,40.4,29.58,West,270,8.0,16.0,93,0.00,,,-99.99,WeatherLink 5.5,2013-04-01 14:05:00,
2013-04-01 11:05:00,47.1,42.5,29.57,WSW,247,8.0,14.0,84,0.00,,,-99.99,WeatherLink 5.5,2013-04-01 15:05:00,
2013-04-01 12:05:00,49.9,42.3,29.56,WSW,247,9.0,20.0,75,0.00,,,-99.99,WeatherLink 5.5,2013-04-01 16:05:00,
2013-04-01 13:05:00,54.8,42.4,29.53,WSW,247,12.0,27.0,63,0.00,,,-99.99,WeatherLink 5.5,2013-04-01 17:05:00,
2013-04-01 14:05:00,55.6,40.1,29.52,WSW,247,16.0,29.0,56,0.00,,,-99.99,WeatherLink 5.5,2013-04-01 18:05:00,
2013-04-01 15:05:00,49.2,39.8,29.54,West,270,14.0,31.0,70,0.03,,,-99.99,WeatherLink 5.5,2013-04-01 19:05:00,
2013-04-01 16:05:00,45.2,37.7,29.57,West,270,14.0,31.0,75,0.00,,,-99.99,WeatherLink 5.5,2013-04-01 20:05:00,
2013-04-01 17:05:00,41.5,31.4,29.61,NW,315,16.0,35.0,67,0.00,,,-99.99,WeatherLink 5.5,2013-04-01 21:05:00,
2013-04-01 18:05:00,41.2,27.5,29.62,NW,315,14.0,31.0,58,0.00,,,-99.99,WeatherLink 5.5,2013-04-01 22:05:00,
2013-04-01 19:05:00,42.3,25.0,29.63,NW,315,12.0,27.0,50,0.00,,,-99.99,WeatherLink 5.5,2013-04-01 23:05:00,
2013-04-01 20:05:00,40.1,18.8,29.66,NW,315,13.0,29.0,42,0.00,,,-99.99,WeatherLink 5.5,2013-04-02 00:05:00,
2013-04-01 21:05:00,35.8,14.9,29.70,NNW,337,12.0,26.0,42,0.00,,,-99.99,WeatherLink 5.5,2013-04-02 01:05:00,
2013-04-01 22:05:00,32.9,8.2,29.74,NW,315,15.0,31.0,35,0.00,,,-99.99,WeatherLink 5.5,2013-04-02 02:05:00,
2013-04-01 23:05:00,31.6,10.0,29.76,NW,315,13.0,28.0,40,0.00,,,-99.99,WeatherLink 5.5,2013-04-02 03:05:00,